Flag for Argentina Weather past 2 weeks in Tucumán, Tucumán, Argentina

Now
79 °F

Clear.


Feels Like: 79 °F
Forecast: 50 / 82 °F
Wind: 2 mph from Southeast

Location: Tucuman Aerodrome

Current Time: Sep 16, 2014 at 1:36:36 PM

Latest Report: Sep 16, 2014 at 1:00 PM


Visibility: 4 mi

Pressure: 29.95 "Hg

Humidity: 37%

Dew point: 50 °F

Location of TucumánLocation

Historic Weather in Tucumán — Graph

°F

Tucumán temperature yesterday

Maximum temperature yesterday: 81 °F (at 4:00 PM)
Minimum temperature yesterday: 50 °F (at 5:00 AM)
Average temperature yesterday: 66 °F

Past Weeks' High & Low Weather Summary

 TemperatureHumidityPressure
High95 °F (Sep 9, 3:00 PM)100% (Sep 4, 1:00 AM)30.30 "Hg (Sep 4, 1:00 AM)
Low46 °F (Sep 12, 4:00 AM)26% (Sep 10, 6:00 PM)29.47 "Hg (Sep 9, 4:00 PM)
Average67 °F65%29.93 "Hg
* Reported Sep 1 12:00 Noon — Sep 16 12:00 Noon, Tucumán, Weather by CustomWeather, © 2014

Note: Actual official high and low records may vary slightly from our data, if they occured in-between our weather recording intervals... More about our weather records

Advertising

Tucumán weather history for previous 24 hours

 ConditionsComfort  
Time TempWeatherWind HumidityBarometerVisibility
12:00 PM
Sep 16
77 °FClear.2 mph36%29.98 "Hg4 mi
11:00 AM73 °FClear.9 mph41%30.01 "Hg4 mi
10:00 AM68 °FClear.5 mph46%30.04 "Hg6 mi
9:00 AM61 °FClear.2 mph59%30.01 "Hg6 mi
8:00 AM52 °FClear.8 mph72%30.01 "Hg6 mi
7:00 AM50 °FSunny.5 mph71%30.01 "Hg10 mi
6:00 AM54 °FClear.6 mph63%30.01 "Hg6 mi
5:00 AM52 °FClear.7 mph67%29.98 "Hg6 mi
4:00 AM59 °FClear.6 mph51%30.01 "Hg6 mi
3:00 AM55 °FClear.7 mph59%30.04 "Hg6 mi
2:00 AM59 °FClear.7 mph55%30.07 "Hg6 mi
1:00 AM61 °FClear.7 mph55%30.07 "Hg6 mi
12:00 AM57 °FClear.10 mph59%30.09 "Hg5 mi
11:00 PM
Sep 15
63 °FClear.7 mph49%30.09 "Hg5 mi
10:00 PM63 °FClear.5 mph52%30.09 "Hg4 mi
9:00 PM68 °FClear.5 mph40%30.09 "Hg4 mi
8:00 PM72 °FClear.5 mph36%30.09 "Hg4 mi
7:00 PM75 °FClear.9 mph31%30.09 "Hg6 mi
6:00 PM79 °FClear.12 mph26%30.09 "HgN/A
5:00 PM79 °FSunny.9 mph26%30.09 "Hg10 mi
4:00 PM81 °FSunny.12 mph26%30.12 "Hg10 mi
3:00 PM77 °FClear.10 mph28%30.15 "Hg6 mi
2:00 PM77 °FClear.9 mph30%30.18 "Hg6 mi
1:00 PM75 °FClear.2 mph29%30.21 "Hg6 mi
Weather by CustomWeather, © 2014

See weather overviewHow to use our weather pages